This is the latest recevied weather packets stored in our database for station/object W3AJR. If no packets are shown the sender has not sent any weather packets the latest 10 day(s).
| Time | Temp. | Humidity | Pressure | Rain* | Wind** | Luminosity | Snow |
|---|---|---|---|---|---|---|---|
| 1777533699 | 11.67° C | 99% | 1006.7 hPa | 0 mm | - | 0 W/m² | - |
| 1777533396 | 11.67° C | 99% | 1006.7 hPa | 0 mm | - | 0 W/m² | - |
| 1777533092 | 11.67° C | 99% | 1006.7 hPa | 0 mm | - | 0 W/m² | - |
| 1777532790 | 12.22° C | 99% | 1007 hPa | 0 mm | - | 0 W/m² | - |
| 1777532485 | 12.22° C | 99% | 1006.8 hPa | 0 mm | - | 0 W/m² | - |
| 1777532182 | 11.67° C | 99% | 1006.7 hPa | 0 mm | - | 0 W/m² | - |
| 1777531879 | 11.67° C | 99% | 1007 hPa | 1.78 mm | - | 0 W/m² | - |
| 1777531575 | 11.67° C | 99% | 1007.2 hPa | 1.78 mm | - | 0 W/m² | - |
| 1777531272 | 11.67° C | 99% | 1006.7 hPa | 0 mm | - | 0 W/m² | - |
| 1777530970 | 11.67° C | 99% | 1006.8 hPa | 0 mm | - | 0 W/m² | - |
| 1777530667 | 11.67° C | 99% | 1006.9 hPa | 0 mm | - | 0 W/m² | - |
| 1777530364 | 11.67° C | 99% | 1007 hPa | 0 mm | - | 0 W/m² | - |
| 1777530060 | 11.11° C | 99% | 1006.9 hPa | 0 mm | - | 0 W/m² | - |
| 1777529757 | 11.11° C | 99% | 1006.8 hPa | 0 mm | - | 0 W/m² | - |
| 1777529453 | 11.67° C | 99% | 1007 hPa | 0 mm | - | 0 W/m² | - |
| 1777529151 | 11.67° C | 99% | 1007 hPa | 0 mm | - | 0 W/m² | - |
| 1777528847 | 11.67° C | 99% | 1007 hPa | 0 mm | - | 0 W/m² | - |
| 1777528544 | 11.67° C | 99% | 1006.9 hPa | 0 mm | - | 0 W/m² | - |
| 1777528241 | 12.22° C | 99% | 1006.7 hPa | 0 mm | - | 0 W/m² | - |
| 1777527939 | 12.22° C | 99% | 1006.9 hPa | 0 mm | - | 0 W/m² | - |
| 1777527634 | 12.22° C | 99% | 1007.1 hPa | 0 mm | - | 0 W/m² | - |
| 1777527330 | 12.22° C | 99% | 1007 hPa | 0 mm | - | 0 W/m² | - |
| 1777527026 | 12.22° C | 99% | 1007.1 hPa | 0 mm | - | 0 W/m² | - |
| 1777526721 | 12.22° C | 99% | 1007.1 hPa | 0 mm | - | 0 W/m² | - |
| 1777526417 | 12.78° C | 99% | 1007.1 hPa | 0 mm | - | 0 W/m² | - |
* Rain latest hour (hover to see other rain measurements)
** Current wind speed in m/s (hover to see current wind gust speed)